(192) Nausikaa
ephemeris date magn radius delta ra dec elong phase
Today18 Jun 202611.11.955 AU1.635 AU23h43m-04°46'92.0°31.3°
Opposition30 Sep 20268.41.816 AU0.817 AU00h17m+08°40'173.8°3.4°
(192) Nausikaa - 2026-06-18
astro.vanbuitenen.nl


 
-1 year
-1 month
-1 day
Now
+1 day
+1 month
+1 year

The interactive orbit chart above shows the body's path through the solar system and its position at the given date. Green and blue lines are shown perpendicular to the ecliptic plane: Green if the path is above the ecliptic plane, blue if it is below. (Left-click and drag to rotate the view; Right-click and drag to move the view; Use scroll wheel to zoom in our out.)

The orbital elements of Nausikaa are:

            e (Eccentricity)                : 0.2451733
            a (Semimajor axis)              : 2.4033554
            i (Inclination)                 : 6.79570
            Ω (Longitude of ascending node) : 343.07038
            ω (Argument of perihelion)      : 30.57689
            M (Mean anomaly)                : 326.27489
            Epoch                           : 2026 Jun 09

            L (Longitude of perihelion)     : 13.47065
            B (Latitude of perihelion)      : 3.45092
            P (Orbital period in years)     : 3.73            
        

The light curve chart below shows the estimated development of the minor planet's magnitude.


The all-sky chart below shows the path of the minor planet over the same period as the light curve. The current position is marked yellow.





The following chart shows the path of the minor planet in the next few days. The field of view is optimized for (~10x50) binoculars and finderscopes.




Ephemerides:
Date       Time       RA (2000)    DEC (2000)    delta   radius  elong  phase   PA    magn
2026-06-18 00:00 UT   23 43 59.3   -04 46 11     1.635    1.955   92.0   31.3   247   11.1 
2026-06-18 22:06 UT   23 45 20.2   -04 35 23     1.624    1.953   92.5   31.3   247   11.1 
2026-06-19 00:00 UT   23 45 27.1   -04 34 27     1.623    1.953   92.5   31.3   247   11.1 
2026-06-20 00:00 UT   23 46 54.2   -04 22 44     1.611    1.951   93.1   31.3   247   11.0 
2026-06-21 00:00 UT   23 48 20.7   -04 11 03     1.600    1.949   93.6   31.4   247   11.0 
2026-06-22 00:00 UT   23 49 46.4   -03 59 23     1.588    1.946   94.2   31.4   247   11.0 
2026-06-23 00:00 UT   23 51 11.4   -03 47 45     1.576    1.944   94.7   31.4   247   11.0 
2026-06-24 00:00 UT   23 52 35.7   -03 36 08     1.564    1.942   95.3   31.4   247   11.0 
2026-06-25 00:00 UT   23 53 59.3   -03 24 33     1.552    1.940   95.8   31.4   247   10.9 
2026-06-26 00:00 UT   23 55 22.0   -03 13 00     1.541    1.938   96.4   31.4   247   10.9 
2026-06-27 00:00 UT   23 56 44.0   -03 01 29     1.529    1.936   97.0   31.4   247   10.9 
2026-06-28 00:00 UT   23 58 05.2   -02 49 59     1.517    1.934   97.5   31.4   247   10.9 
2026-06-29 00:00 UT   23 59 25.6   -02 38 32     1.506    1.932   98.1   31.4   247   10.9 
2026-06-30 00:00 UT   00 00 45.2   -02 27 07     1.494    1.930   98.7   31.4   247   10.8 
2026-07-01 00:00 UT   00 02 03.9   -02 15 43     1.483    1.928   99.3   31.4   247   10.8 
2026-07-02 00:00 UT   00 03 21.8   -02 04 22     1.471    1.926   99.8   31.3   247   10.8 
2026-07-03 00:00 UT   00 04 38.9   -01 53 04     1.460    1.924  100.4   31.3   247   10.8 
2026-07-04 00:00 UT   00 05 55.0   -01 41 48     1.448    1.922  101.0   31.3   247   10.8 
2026-07-05 00:00 UT   00 07 10.2   -01 30 34     1.437    1.920  101.6   31.2   247   10.7 
2026-07-06 00:00 UT   00 08 24.5   -01 19 23     1.426    1.918  102.2   31.2   247   10.7 
2026-07-07 00:00 UT   00 09 37.8   -01 08 14     1.415    1.916  102.8   31.2   247   10.7 
2026-07-08 00:00 UT   00 10 50.1   +00 57 09     1.403    1.914  103.4   31.1   247   10.7 
2026-07-09 00:00 UT   00 12 01.4   +00 46 06     1.392    1.912  104.0   31.1   247   10.7 
2026-07-10 00:00 UT   00 13 11.7   +00 35 07     1.381    1.910  104.6   31.0   247   10.6 


    Terminology:
            
    delta:  distance between minor planet and earth in AU
    radius: distance between minor planet and sun in AU
    magn:   magnitude (brightness) estimate    
    ra:     right ascension in hours (24h = 360deg)
    dec:    declination in degrees
    elong:  elongation in degrees (angle sun-earth-minor planet)    
    phase:  phase angle in degrees (angle sun-minor planet-earth)        
    AU:     Astronomical Unit (mean distance between earth and sun: 149597870.7 km
    

Orbital elements provided by the MPC (Minor Planet Center).
Calculations by a modified version of AAPlus, a C# implementation of the AA+ project by PJ Naughter from the algorithms presented in the book "Astronomical Algorithms" by Jean Meeus.
NGC2000 dso catalog and star labels from VizieR as provided by the Strasbourg astronomical Data Center.
Tycho2 catalog from the ESO archive.